#timestamp,LO_Frequency,Hit,StdDev 
1599238815.1,286047000.7,N
1599238835.9,286047000.7,N
1599238855.7,286047001.1,N
1599238875.6,286047000.1,N
1599238895.4,286047000.4,N
1599238915.2,286047000.6,N
1599238935.1,286047001.0,N
1599238936.0,286047001.0,N
1599238955.8,286047002.4,N
1599238975.7,286047002.7,N
1599238995.5,286047002.6,N
1599239015.3,286047002.4,N
1599239035.2,286047002.8,N
1599239055.9,286047000.2,N
1599239075.7,286047000.5,N
1599239095.6,286047000.5,N
1599239115.4,286047000.2,N
1599239135.2,286047000.8,N
1599239155.1,286047000.5,N
1599239156.0,286047000.5,N
1599239175.8,286046999.8,N
1599239195.7,286047002.7,N
1599239215.5,286047002.4,N
1599239235.3,286047001.0,N
1599239255.2,286046999.8,N
1599239275.0,286047000.5,N
1599239275.9,286047000.5,N
1599239295.8,286046999.9,N
1599239315.6,286047002.7,N
1599239335.4,286047002.8,N
1599239355.3,286047001.0,N
1599239375.1,286047000.7,N
1599239395.8,286047000.3,N
1599239415.7,286047000.1,N
1599239435.5,286047000.7,N
1599239455.4,286047000.8,N
1599239475.2,286047000.8,N
1599239495.0,286046998.3,N
1599239495.9,286046998.3,N
1599239515.8,286046998.1,N
1599239535.6,286047001.1,N
1599239555.4,286047000.9,N
1599239575.3,286047001.0,N
1599239595.1,286047000.9,N
1599239615.9,286047000.7,N
1599239635.7,286047000.6,N
1599239655.5,286047000.9,N
1599239675.4,286047001.2,N
1599239695.2,286046998.1,N
1599239715.1,286046998.6,N
1599239746.0,286046998.6,E
1599239755.9,286047000.7,N
1599239775.7,286047002.0,P
1599239795.6,286047001.4,N
1599239815.4,286047001.3,N
1599239835.2,286047000.1,N
1599239855.1,286046999.7,N
1599239856.0,286046999.7,N
1599239875.8,286046999.9,N
1599239895.7,286047000.2,N
1599239915.5,286047002.2,N
1599239935.3,286047004.1,Y
1599239955.2,286047000.1,P
1599239975.0,286047002.4,P
1599239975.9,286047002.4,N
1599239995.8,286047001.9,N
1599240015.6,286047002.3,N
1599240035.4,286047002.0,N
1599240055.3,286046999.8,N
1599240075.1,286047000.2,N
1599240095.8,286047001.6,N
1599240115.7,286047001.9,N
1599240135.5,286047001.5,N
1599240155.4,286046999.9,N
1599240175.2,286047000.0,N
1599240195.0,286047002.7,N
1599240195.9,286047002.7,N
1599240215.8,286047001.9,N
1599240235.6,286047002.6,N
1599240255.4,286047001.7,N
1599240275.3,286047001.5,N
1599240295.1,286047001.3,N
1599240315.9,286047002.2,N
1599240335.7,286047003.9,Y
1599240355.5,286047001.5,P
1599240375.4,286047000.1,P
1599240395.2,286047001.1,N
1599240415.0,286047001.1,N
1599240415.9,286047001.1,N
1599240435.8,286047000.7,N
1599240455.6,286047000.0,N
1599240475.5,286047000.1,N
1599240495.3,286047000.3,N
1599240515.1,286047000.6,N
1599240535.9,286047000.0,N
1599240555.7,286047000.5,N
1599240575.6,286047000.3,N
1599240595.4,286047000.5,N
1599240615.2,286046999.8,N
1599240635.1,286047000.7,N
1599240636.0,286047000.7,N
1599240655.8,286047002.8,Y
1599240675.6,286047000.0,P
1599240695.5,286046999.8,N
1599240715.3,286047000.3,N
1599240735.2,286047000.4,N
1599240755.9,286047000.5,N
1599240775.7,286047000.1,N
1599240795.6,286047002.0,Y
1599240815.4,286047002.4,P
1599240835.2,286046999.9,N
1599240855.1,286047000.5,N
1599240856.0,286047000.5,N
1599240875.8,286047000.6,N
1599240895.7,286047000.4,N
1599240915.5,286047000.6,N
1599240935.3,286047001.1,N
1599240955.2,286047000.7,N
1599240975.0,286047001.1,N
1599240975.9,286047001.1,N
1599240995.8,286047001.1,N
1599241015.6,286046998.2,Y
1599241035.4,286046997.1,P
1599241055.3,286046999.4,N
1599241075.1,286046996.7,N
1599241095.8,286046995.4,N
1599241115.7,286046997.2,N
1599241135.5,286046996.8,N
1599241155.4,286046997.0,N
1599241175.2,286046998.7,N
1599241195.0,286046999.3,N
1599241195.9,286046999.3,N
1599241215.8,286046999.1,N
1599241235.6,286046999.4,N
1599241255.4,286046999.6,N
1599241275.3,286046999.2,N
1599241295.1,286046999.1,N
1599241315.9,286046996.9,N
1599241335.7,286046999.5,N
1599241355.5,286047001.2,N
1599241375.4,286046998.9,N
1599241395.2,286046996.5,N
1599241415.0,286046996.9,N
1599241415.9,286046996.9,N
1599241435.8,286046998.9,N
1599241455.6,286046998.6,N
1599241475.5,286046998.6,N
1599241495.3,286046998.3,N
1599241515.1,286047001.1,N
1599241535.9,286047000.5,N
1599241555.7,286046998.5,N
1599241575.6,286046998.2,N
1599241595.4,286047001.2,N
1599241615.2,286046999.4,N
1599241635.1,286046998.7,N
1599241636.0,286046998.7,N
1599241655.8,286046998.5,N
1599241675.7,286046999.3,N
1599241695.5,286046998.3,N
1599241715.3,286046998.1,N
1599241735.2,286046998.1,N
1599241755.0,286047000.5,N
1599241755.9,286047000.5,N
1599241775.7,286046998.4,N
1599241795.6,286046998.1,N
1599241815.4,286047000.7,N
1599241835.3,286047000.8,N
1599241855.1,286047000.7,N
1599241875.8,286046998.6,N
1599241895.7,286046998.4,N
1599241915.5,286047000.5,N
1599241935.4,286047002.4,N
1599241955.2,286047001.9,N
1599241975.0,286047004.4,Y
1599241975.9,286047004.4,P
1599241995.8,286047002.8,N
1599242015.6,286047000.1,N
1599242035.5,286047002.4,N
1599242055.3,286046999.9,N
1599242075.1,286047000.2,N
1599242095.9,286047000.2,N
1599242115.7,286047000.3,N
1599242135.6,286047000.0,N
1599242155.4,286047000.5,N
1599242175.2,286047001.0,N
1599242195.1,286047000.0,N
1599242196.0,286047000.0,N
1599242215.8,286047002.4,N
1599242235.6,286047002.3,N
1599242255.5,286047002.7,N
1599242275.3,286047002.8,N
1599242295.2,286047001.0,N
1599242315.9,286047000.9,N
1599242335.7,286047001.2,N
1599242355.6,286046998.3,N
1599242375.4,286046998.1,N
1599242395.2,286047000.8,N
